Погода в Лашкуте

Россия / Кабардино-Балкарская Республика     43°33′00″N   43°12′24″E
темп.,
°C
ветер,
м/с
пор.,
м/с
влажн.,
%
обл.,
%
осадки,
мм/ч
давл.,
гПа
погр.,
м
26 июля, пн
пн2600:00+15ююв228353 0.0 101829
03:00+14ююз32891 0.0 101838
06:00+14ю228712 0.0 101941
09:00+19в337272 0.0 1017841
12:00+20всв337293 0.1 1017989
15:00+18в227767 0.3 1017549
18:00+19юв237455 0.1 1017490
21:00+16ю1187100 0.3 101812
27 июля, вт
вт2700:00+13юв1195100 0.3 101712
03:00+14ю229595 0.3 101618
06:00+14всв2399100 0.6 1017156
09:00+14св34100100 1.7 1017218
12:00+13св35100100 2.0 1018335
15:00+13ссв1199100 7.4 1018146
18:00+12св34100100 18.7 1020229
21:00+11св34100100 23.7 1020294
28 июля, ср
ср2800:00+10вюв1199100 0.9 102091
03:00+10в12100100 1.2 1019104
06:00+10в22100100 0.6 1020138
09:00+10в22100100 0.9 1020131
12:00+10в1295100 0.1 1020305
15:00+14в227797 0.1 1019740
18:00+13вюв127840 0.0 1019573
21:00+9ю22945 0.0 102023
29 июля, чт
чт2900:00+10ююз33830 0.0 101939
03:00+10ююз32790 0.0 101834
06:00+11ююз33760 0.0 101842
09:00+17всв23500 0.0 1017830
12:00+19всв43523 0.0 10161217
15:00+20всв335517 0.0 10151220
18:00+18всв227171 0.0 1015318
21:00+15ююз227974 0.0 101628
30 июля, пт
пт3000:00+13ююз33833 0.0 101638
03:00+13ююз33830 0.0 101644
06:00+13юз33750 0.0 101646
09:00+19всв22440 0.0 1015828
12:00+21св43480 0.0 10131181
15:00+21св33558 0.5 10131148
18:00+19в227399 1.8 1014202
21:00+15ююз348261 2.4 101546